Home > Weather > Vista > Past weeks

Flag for USA Past Weather in Vista, California, USA — Yesterday and Last 2 Weeks

Now
61 °F

Low clouds.


Feels Like: 61 °F
Forecast: 59 / 71 °F
Wind: 5 mph from West

Location: McClellan-Palomar Airport

Current Time: May 31, 2016 at 5:14:18 AM

Latest Report: May 31, 2016 at 3:53 AM


Visibility: 9 mi

Pressure: 29.86 "Hg

Humidity: 90%

Dew Point: 58 °F

Location of VistaLocation

Past Weather in Vista — Graph

°F

Vista Temperature Yesterday

Maximum temperature yesterday: 67 °F (at 1:53 PM)
Minimum temperature yesterday: 61 °F (at 2:53 AM)
Average temperature yesterday: 63 °F

High & Low Weather Summary for the Past Weeks

 TemperatureHumidityPressure
High68 °F (May 18, 12:53 PM)93% (May 29, 4:53 AM)30.09 "Hg (May 29, 4:53 AM)
Low54 °F (May 22, 5:53 AM)52% (May 21, 1:53 PM)29.82 "Hg (May 28, 2:53 AM)
Average62 °F74%29.95 "Hg
* Reported May 16 2:53 AM — May 31 2:53 AM, Vista, Weather by CustomWeather, © 2016

Note: Actual official high and low records may vary slightly from our data, if they occured in-between our weather recording intervals... More about our weather records

Advertising

Vista Weather History for the Previous 24 Hours

Scroll right to see more
 ConditionsComfort  
Time TempWeatherWind HumidityBarometerVisibility
2:53 AM
Tue, May 31
61 °FOvercast.No wind87%29.87 "Hg10 mi
1:53 AM62 °FOvercast.3 mph83%29.87 "Hg10 mi
12:53 AM62 °FOvercast.No wind83%29.88 "Hg10 mi
11:53 PM
Mon, May 30
62 °FOvercast.3 mph83%29.90 "Hg10 mi
10:53 PM62 °FOvercast.3 mph83%29.91 "Hg10 mi
9:53 PM63 °FOvercast.No wind81%29.92 "Hg10 mi
9:04 PM63 °FOvercast.5 mph84%29.91 "Hg10 mi
8:53 PM63 °FLow clouds.3 mph84%29.90 "Hg10 mi
7:53 PM63 °FSunny.5 mph81%29.90 "Hg10 mi
6:53 PM64 °FSunny.6 mph75%29.90 "Hg10 mi
5:53 PM66 °FSunny.7 mph70%29.91 "Hg10 mi
4:53 PM66 °FSunny.10 mph70%29.91 "Hg10 mi
3:53 PM66 °FSunny.7 mph70%29.92 "Hg10 mi
2:53 PM67 °FSunny.6 mph71%29.93 "Hg10 mi
1:53 PM67 °FOvercast.6 mph71%29.95 "Hg10 mi
12:53 PM65 °FMore clouds than sun.7 mph76%29.97 "Hg10 mi
11:53 AM64 °FOvercast.5 mph78%29.98 "Hg10 mi
10:53 AM64 °FOvercast.6 mph81%29.99 "Hg10 mi
9:53 AM63 °FOvercast.7 mph81%30.00 "Hg10 mi
8:53 AM63 °FOvercast.5 mph78%30.00 "Hg10 mi
7:53 AM62 °FOvercast.5 mph83%29.99 "Hg10 mi
6:53 AM62 °FOvercast.No wind83%29.98 "Hg10 mi
6:01 AM61 °FMostly cloudy.No wind87%29.99 "Hg9 mi
Weather by CustomWeather, © 2016

See weather overviewHow to use our weather pages